Flight Track Log - Related Links

Times and Time Zones

All times are in EDT time to prevent confusion due to time zone crossing. See the POE946 flight status page for this flight to view local times or setup timezone preferences in your user account.

Time Position Orientation Groundspeed Altitude Reporting Facility
EDT Latitude Longitude Course Direction KTS MPH feet Rate Location/Type
Fri 05:42:58 PM 42.3833 -71.0000 North 141 162 700  Level KA90
Fri 05:44:07 PM 42.4286 -70.9936 North 152 175 2,700 1,545 Climbing Boston Center
Fri 05:45:10 PM 42.4869 -70.9786 11° North 198 228 4,100 1,824 Climbing Boston Center
Fri 05:46:12 PM 42.5403 -71.0083 338° Northwest 217 250 6,500 2,177 Climbing Boston Center
Fri 05:47:14 PM 42.5958 -71.0700 321° Northwest 239 275 8,600 1,984 Climbing Boston Center
Fri 05:48:16 PM 42.6489 -71.1292 321° Northwest 245 282 10,600 1,984 Climbing Boston Center
Fri 05:49:18 PM 42.7053 -71.1908 321° Northwest 244 281 12,700 1,645 Climbing Boston Center
Fri 05:50:20 PM 42.7586 -71.2483 322° Northwest 244 281 14,000 1,056 Climbing Boston Center
Fri 05:51:23 PM 42.7936 -71.3475 296° West 284 327 14,900 912 Climbing Boston Center
Fri 05:52:25 PM 42.8025 -71.4583 276° West 291 335 15,900 1,016 Climbing Boston Center
Fri 05:53:27 PM 42.8139 -71.5789 277° West 296 341 17,000 919 Climbing Boston Center
Fri 05:54:29 PM 42.8242 -71.6928 277° West 300 345 17,800 871 Climbing Boston Center
Fri 05:55:31 PM 42.8350 -71.8044 278° West 300 345 18,800 871 Climbing Boston Center
Fri 05:56:33 PM 42.8433 -71.9050 276° West 300 345 19,600 968 Climbing Boston Center
Fri 05:58:37 PM 42.8664 -72.1461 278° West 292 336 21,800 1,032 Climbing Boston Center
Fri 05:59:39 PM 42.8750 -72.2517 276° West 285 328 22,800 968 Climbing Boston Center
Fri 06:00:41 PM 42.8858 -72.3603 278° West 280 322 23,800 581 Climbing Boston Center
Fri 06:01:43 PM 42.8942 -72.4644 276° West 279 321 24,000 97 Climbing Boston Center
Fri 06:02:45 PM 42.9044 -72.5781 277° West 294 338 24,000  Level Boston Center
Fri 06:03:47 PM 42.9167 -72.7183 277° West 322 371 24,000  Level Boston Center
Fri 06:04:49 PM 42.9278 -72.8431 277° West 327 376 24,000  Level Boston Center
Fri 06:05:51 PM 42.9383 -72.9714 276° West 336 387 24,000  Level Boston Center
Fri 06:06:53 PM 42.9486 -73.1039 276° West 345 397 24,000  Level Boston Center
Fri 06:07:55 PM 42.9600 -73.2325 277° West 345 397 24,000  Level Boston Center
Fri 06:08:58 PM 42.9700 -73.3742 276° West 345 397 24,000  Level Boston Center
Fri 06:10:00 PM 42.9811 -73.5028 277° West 344 396 24,000  Level Boston Center
Fri 06:11:02 PM 42.9911 -73.6297 276° West 342 394 24,000  Level Boston Center
Fri 06:12:04 PM 43.0006 -73.7589 276° West 341 392 24,000  Level Boston Center
Fri 06:13:06 PM 43.0114 -73.8861 277° West 340 391 24,000  Level Boston Center
Fri 06:14:08 PM 43.0217 -74.0375 275° West 339 390 24,000  Level Boston Center
Fri 06:15:10 PM 43.0314 -74.1644 276° West 338 389 24,000  Level Boston Center
Fri 06:16:12 PM 43.0394 -74.2900 275° West 337 388 24,000  Level Boston Center
Fri 06:17:14 PM 43.0481 -74.4161 275° West 335 386 24,000  Level Boston Center
Fri 06:18:16 PM 43.0592 -74.5614 276° West 334 384 24,000  Level Boston Center
Fri 06:19:19 PM 43.0683 -74.6878 276° West 334 384 24,000  Level Boston Center
Fri 06:20:21 PM 43.0764 -74.8147 275° West 334 384 24,000  Level Boston Center
Fri 06:21:23 PM 43.0850 -74.9436 275° West 335 386 24,000  Level Boston Center
Fri 06:22:25 PM 43.0928 -75.0703 275° West 335 386 24,000  Level Boston Center
Fri 06:23:27 PM 43.1011 -75.1981 275° West 334 384 24,000  Level Boston Center
Fri 06:24:29 PM 43.1081 -75.3231 274° West 331 381 24,000  Level Boston Center
Fri 06:25:31 PM 43.1186 -75.4722 276° West 331 381 24,000  Level Boston Center
Fri 06:26:33 PM 43.1242 -75.5792 274° West 331 381 24,000  Level Boston Center
Fri 06:27:35 PM 43.1342 -75.7278 275° West 329 379 24,000  Level Boston Center
Fri 06:28:38 PM 43.1414 -75.8517 275° West 329 379 24,000  Level Boston Center
Fri 06:29:40 PM 43.1481 -75.9767 274° West 329 379 24,000  Level Boston Center
Fri 06:30:42 PM 43.1547 -76.1003 274° West 329 379 24,000  Level Boston Center
Fri 06:31:44 PM 43.1614 -76.2236 274° West 328 377 24,000  Level Boston Center
Fri 06:32:46 PM 43.1497 -76.3469 263° West 329 379 24,000 -435 Level Boston Center
Fri 06:33:48 PM 43.1342 -76.4969 262° West 330 380 23,100 -919 Descending Boston Center
Fri 06:34:50 PM 43.1239 -76.6239 264° West 334 384 22,100 -532 Descending Boston Center
Fri 06:35:52 PM 43.1139 -76.7408 263° West 335 386 22,000 -48 Descending Boston Center
Fri 06:36:54 PM 43.1017 -76.8864 263° West 327 376 22,000  Level Boston Center
Fri 06:37:39 PM 43.0942 -76.9592 262° West 328 377 22,000  Level Cleveland Center
Fri 06:38:42 PM 43.0939 -77.0819 270° West 328 377 22,000 -336 Level Cleveland Center
Fri 06:39:44 PM 43.1125 -77.2289 280° West 329 379 21,300 -823 Descending Cleveland Center
Fri 06:40:46 PM 43.1239 -77.3561 277° West 335 386 20,300 -919 Descending Cleveland Center
Fri 06:41:48 PM 43.1364 -77.4850 278° West 340 391 19,400 -919 Descending Cleveland Center
Fri 06:42:50 PM 43.1497 -77.6158 278° West 346 398 18,400 -1,016 Descending Cleveland Center
Fri 06:43:52 PM 43.1644 -77.7725 277° West 347 399 17,300 -1,008 Descending Cleveland Center
Fri 06:44:55 PM 43.1778 -77.9050 278° West 352 405 16,300 -960 Descending Cleveland Center
Fri 06:45:57 PM 43.1894 -78.0356 277° West 353 406 15,300 -1,016 Descending Cleveland Center
Fri 06:46:59 PM 43.2014 -78.1647 277° West 347 399 14,200 -1,016 Descending Cleveland Center
Fri 06:48:01 PM 43.2125 -78.2864 277° West 331 381 13,200 -1,016 Descending Cleveland Center
Fri 06:49:03 PM 43.2256 -78.4317 277° West 326 375 12,100 -968 Descending Cleveland Center
Fri 06:50:05 PM 43.2339 -78.5550 275° West 330 380 11,200 -1,182 Descending Cleveland Center
Fri 06:52:21 PM 43.2500 -78.7833 276° West 270 311 8,200 -1,255 Descending Toronto Center
Fri 06:53:21 PM 43.2500 -78.8833 270° West 270 311 7,100 -600 Descending Toronto Center
Fri 06:54:21 PM 43.2667 -78.9667 285° West 270 311 7,000 -500 Descending Toronto Center
Fri 06:55:21 PM 43.2667 -79.0833 270° West 270 311 6,100 -950 Descending Toronto Center
Fri 06:56:21 PM 43.2833 -79.1833 283° West 270 311 5,100 -1,000 Descending Toronto Center
Fri 06:57:21 PM 43.3167 -79.2667 299° West 250 288 4,100 -550 Descending Toronto Center
Fri 06:58:21 PM 43.3500 -79.3333 305° West 240 276 4,000 -800 Descending Toronto Center
Fri 06:59:21 PM 43.3833 -79.4000 305° West 240 276 2,500 -1,000 Descending Toronto Center
Fri 07:00:21 PM 43.4167 -79.5000 295° West 220 253 2,000 -250 Descending Toronto Center
Fri 07:01:21 PM 43.4500 -79.5333 324° Northwest 210 242 2,000  Level Toronto Center
Fri 07:02:21 PM 43.5000 -79.6167 310° West 200 230 2,000 50 Level Toronto Center
Fri 07:03:21 PM 43.5500 -79.5833 26° Northeast 190 219 2,100 33 Climbing Toronto Center
Fri 07:05:21 PM 43.6000 -79.5000 50° Northeast 140 161 2,100 -300 Level Toronto Center
Fri 07:06:21 PM 43.6000 -79.4333 90° East 140 161 1,200 -800 Descending Toronto Center
Fri 07:07:21 PM 43.6167 -79.4000 55° Northeast 120 138 500 -700 Descending Toronto Center

Login

Don't have an account? Register now (free) for customized features, flight alerts, and more!